Location: Exeidioux
(45.6312°N, 1.6819°E)
Time: 17:22:40
(UTC+00:00)

IRS-1C Rocket - Pass Details

Date: 03 March 2021
Orbit: 800 x 806 km, 99.0° (Epoch: 11 April)

Event Time Altitude Azimuth Distance (km) Brightness Sun altitude
Rises 18:04:30 0° 156° (SSE) 3,303 7.1 -4.6°
Reaches altitude 10° 18:06:50 10° 154° (SSE) 2,377 6.3 -5.0°
Maximum altitude 18:12:03 70° 72° (ENE) 858 4.1 -5.9°
Drops below altitude 10° 18:17:19 10° 350° (N) 2,397 6.7 -6.8°
Sets 18:19:40 0° 348° (NNW) 3,332 7.4 -7.2°
